SEEKER (44533 NORAD) Tracking and Keplerian Element Data

This shows tracking and keplerian element data for the satellite.

Feedback or suggestion? Click here.




ElementValue
Catalog44533
NameSEEKER
Epoch Orbit2966
Epoch Day87.9832226
Epoch Year2020
RAAN63.9161
Inclination51.6425
Eccentricity0.0011507
Argument of Perigee13.1582
Mean Anonmoly346.9687
Mean Motion15.30570546
Decay Rate1.942E-05
L11 44533U 19022K 20087.98322260 .00001942 00000-0 76865-4 0 9994
L22 44533 51.6425 63.9161 0011507 13.1582 346.9687 15.30570546 29666

Live tracking and technical data element details for SEEKER (NORAD 44533). SEEKER can be tracked NOW for your location showing map with azimuth and elevation plus other details from your city location.

Track the satellite on the map from your city or location and see movement details for azimuth, elevation, latitude, longitude, range, height, and movement on the map or in text.







IsCatalogInMostPopularTable: catalog: 44533, numindb: 52
Update: records affected: 1



GetName: 44533 SEEKER

Hit Count: updated at: Sat, 28 Mar 2020 21:32:04 GMT